Location: Sluknov
(51.0170°N, 14.4670°E)
Time: 02:12:53
(UTC+01:00)

ARIANE 6 FM1 Upper Stage - Pass Details

Date: 22 February 2026
Orbit: 523 x 607 km, 62.0° (Epoch: 7 March)

Event Time Altitude Azimuth Distance (km) Brightness Sun altitude
Rises 18:37:32 0° 301° (WNW) 2,658 7.2 -11.2°
Reaches altitude 10° 18:40:29 10° 277° (W) 1,766 6.7 -11.7°
Maximum altitude 18:42:44 15° 242° (WSW) 1,481 5.8 -12.0°
Drops below altitude 10° 18:45:01 10° 207° (SSW) 1,768 5.6 -12.4°
Sets 18:47:58 0° 184° (S) 2,664 6.2 -12.8°
